Powrót do katalogu

DELTA 1 DEB

AktywnySSO
NORAD 7022·DEBRIS·🇺🇸 United States

Wystrzelony Nov 6, 1973 z Vandenberg Space Force Base

Loading…

Następne Przeloty (najbliższe 24 godziny)

TLE

ŚwieżeSource: Space-Track

Epoka: Sep 14, 2026, 04:23 UTC

1 07022U 73086N   26257.18289212 -.00000033  00000-0  89747-4 0  9996
2 07022 102.3206 339.7177 0186319  77.5139 311.6251 12.44405393399740

Śledź DELTA 1 DEB w czasie rzeczywistym z AllMySat

Download on the App Store